Grizzly Air Cargo 5379


PABE
Bethel Airport
Bethel, Alaska, US
PAKN
King Salmon Airport
King Salmon, Alaska, US

Activity Log

Date Flight Route Aircraft Duration
No Flights Yet

Route Details

Aircraft Information
Primary: Saab 340AF
Backup: Not Available
Route Data
Distance: 208nm
Sched. Duration: 1h 00m
Avg. Duration: 0h 00m (-100m)
Times Flown: 0
Recm'd Route: BET J123 AKN
Planned Altitude: 21,000ft
Origin Wx: PABE 281953Z 00000KT 10SM OVC033 M02/M02 A3018 RMK AO2 SLP220 T10171022
Dest. Wx: PAKN 281954Z 36007KT 10SM OVC039 M01/M03 A3010 RMK AO2 SLP194 T10061033
Notes:

Financial History
Total Freight: 0lbs
Average Load: 0lbs/flt
Fuel Used: 0lbs
Avg. Fuel Used: 0lbs/flt
Fuel Expense: $0
Avg. Fuel Expense: $0
Avg. Fuel Cost: $0/lbs
Total Gross Income: $0
Pilot Pay: $0
Total Expenses: $0
Total Revenue: $0
Average Revenue: $0